www.pogodaiklimat.ru

Погода и климат >> Архив погоды >> Великобритания >> Шобери


ПОГОДА в Шобери

  • Прогноз погоды в Шобери
  • Монитор погоды в Шобери

АРХИВ ПОГОДЫ в Шобери

Время (UTC), дата Ветер
(напр.,м/с)
 
Видим.   Явления Облачность Т
(С)
Тd
(С)
f
(%)
Тe
(С)
Тes
(С)
Комфортность P
(гПа)
Po
(гПа)
Тmin
(С)
Tmax
(С)
R
(мм)
R24
(мм)
S
(см)
07 12.06 СЗ 6 7000 м слаб. дождь 10/10 150 м
[Frnb]
+9.1 +9.1 100 +5 +5 1012.4 1003.6
08 12.06 СЗ 5 6000 м дождь {морось} 10/10 180 м
[St]
+9.1 +8.9 99 +6 +6 1012.3 1003.5
09 12.06 СЗ 5 4000 м слаб. морось {дождь} 10/10 150 м
[Frnb]
+10.0 +9.9 99 +7 +7 1011.8 1003.1
10 12.06 СЗ 4 7000 м в посл. час морось 10/10 150 м
[St]
+10.3 +10.0 98 +7 +7 1011.6 1002.9
11 12.06 СЗ 4 8000 м слаб. морось 10/10 180 м
[Frnb]
+11.0 +10.5 97 +8 +8 1011.3 1002.6
12 12.06 СЗ 5 10 км в посл. час морось {дождь} 10/10 120 м
[St]
+11.5 +10.7 95 +9 +9 1010.8 1002.2 0.8
13 12.06 СЗ 4 10 км 10/10 150 м
[St]
+11.5 +10.9 96 +9 +9 1010.5 1001.8
14 12.06 СЗ 5 15 км 10/10 240 м
[St]
+12.3 +11.5 95 +10 +10 1010.0 1001.3
15 12.06 СЗ 5 7000 м дымка 10/10 180 м
[St]
+12.2 +11.3 94 +10 +10 1009.5 1000.8
16 12.06 СЗ 4 3800 м слаб. морось 10/10 180 м
[Frnb]
+12.0 +11.6 97 +10 +10 1009.3 1000.6
17 12.06 СЗ 4 3800 м в посл. час дождь н/о +11.9 +11.9 100 +10 +10 1008.7 1000.1
18 12.06 СЗ 4 9000 м в посл. час дождь н/о +12.4 +12.3 99 +10 +10 1007.9 999.3 +12.4 0.8
19 12.06 СЗ 5 10 км н/о +12.0 +11.9 99 +9 +9 1007.5 998.8
20 12.06 СЗ 4 10 км слаб. ливневой дождь н/о +11.9 +11.9 100 +10 +10 1007.0 998.3
21 12.06 СЗ 4 4000 м ливневой дождь н/о +12.0 +11.9 99 +10 +10 1006.6 998.0
22 12.06 СЗ 4 6000 м слаб. дождь н/о +12.1 +12.1 100 +10 +10 1006.1 997.4
23 12.06 С 4 5000 м дождь н/о +12.2 +12.1 99 +10 +10 1005.5 996.9
00 13.06 С 3 6000 м дождь н/о +11.8 +11.8 100 +10 +10 1005.0 996.4 3
01 13.06 СЗ 2 6000 м дождь н/о +11.3 +11.3 100 +10 +10 1004.4 995.7
02 13.06 СЗ 3 6000 м слаб. дождь н/о +11.2 +11.2 100 +9 +9 1003.5 994.8
03 13.06 СЗ 3 15 км в посл. час дождь н/о +10.9 +10.5 97 +9 +9 1002.9 994.2
04 13.06 СЗ 3 21 км н/о +10.4 +9.8 96 +8 +8 1002.8 994.2
05 13.06 СЗ 3 6000 м дымка 10/10 150 м
[Sc]
+10.5 +10.2 98 +9 +9 1002.5 993.8
06 13.06 СЗ 2 6000 м слаб. дождь 10/10 150 м
[Sc]
+10.8 +10.2 96 +9 +9 1002.3 993.7 +10.3 5
07 13.06 З 2 12 км в посл. час дождь 10/10 120 м
[Sc]
+11.0 +10.0 94 +10 +10 1002.3 993.7
08 13.06 СЗ 4 5000 м дождь {морось} 10/10 150 м
[Sc]
+10.7 +10.0 95 +8 +8 1002.4 993.8
09 13.06 СЗ 4 4000 м слаб. морось {дождь} 10/10 90 м
[Sc]
+10.5 +10.3 99 +8 +8 1002.4 993.8
10 13.06 СЗ 4 7000 м слаб. морось 10/10 150 м
[St]
+10.8 +10.4 97 +8 +8 1002.6 993.9
11 13.06 СЗ 4 15 км слаб. морось 10/10 180 м
[Frnb]
+11.2 +10.5 95 +9 +9 1002.8 994.2
12 13.06 СЗ 4 8000 м слаб. дождь {морось} 10/10 300 м
[Sc]
+11.2 +10.1 93 +9 +9 1003.1 994.5 0.2
13 13.06 СЗ 4 15 км слаб. дождь 10/10 300 м
[Sc]
+11.3 +9.9 91 +9 +9 1003.4 994.7
14 13.06 СЗ 4 20 км в посл. час дождь 10/10 240 м
[St]
+11.2 +10.5 95 +9 +9 1003.6 995.0
15 13.06 СЗ 4 15 км слаб. дождь 10/10 360 м
[Cu Sc]
+11.5 +10.0 90 +9 +9 1003.9 995.3
16 13.06 С 3 12 км слаб. дождь 10/9 270 м
[Cu Sc Ac As]
+11.9 +10.2 89 +10 +10 1004.0 995.4
17 13.06 СЗ 3 24 км в посл. час дождь н/о +11.7 +10.1 90 +10 +10 1004.2 995.6
18 13.06 СЗ 3 23 км н/о +11.9 +8.7 81 +10 +10 1004.4 995.8 +13.1 0.8
19 13.06 СЗ 3 25 км н/о +12.1 +8.0 76 +11 +11 1004.9 996.3
20 13.06 С 2 24 км н/о +11.2 +8.7 85 +10 +10 1005.2 996.6
21 13.06 ЮВ 1 20 км н/о +11.0 +9.0 87 +11 +11 1006.2 997.5
22 13.06 ЮВ 3 25 км в посл. час дождь н/о +10.5 +9.2 92 +8 +8 1006.3 997.6
23 13.06 ЮВ 2 15 км н/о +10.2 +9.6 96 +9 +9 1006.4 997.7
00 14.06 Ю 3 12 км слаб. ливневой дождь н/о +10.2 +9.4 95 +8 +8 1006.3 997.6 0.2
01 14.06 Ю 2 15 км слаб. дождь н/о +10.0 +9.1 94 +8 +8 1006.0 997.3
02 14.06 ЮВ 3 6000 м дождь н/о +9.9 +9.6 98 +8 +8 1005.7 997.0
03 14.06 ЮВ 3 5000 м дождь н/о +9.6 +9.6 100 +7 +7 1005.6 996.9
04 14.06 ЮВ 3 9000 м н/о +9.5 +9.5 100 +7 +7 1005.5 996.8
05 14.06 ЮЗ 2 6000 м дождь 10/10 90 м
[St]
+9.5 +9.5 100 +8 +8 1005.8 997.1
06 14.06 ЮВ 2 7000 м слаб. дождь 10/10 90 м
[Sc]
+9.8 +9.8 100 +8 +8 1005.7 997.0 +9.5 10
07 14.06 ЮВ 3 7000 м слаб. дождь 10/10 120 м
[Sc]
+10.5 +10.5 100 +8 +8 1005.4 996.8
08 14.06 Ю 4 30 км в посл. час дождь 10/8 300 м
[Sc Ac As]
+11.4 +10.1 92 +9 +9 1006.2 997.6
09 14.06 ЮЗ 4 30 км {дождь} 9/3 360 м
[Sc As op]
+11.6 +9.5 87 +9 +11 1006.8 998.1
10 14.06 ЮЗ 5 30 км 9/3 420 м
[Cu hum Ac As]
+12.5 +9.5 82 +10 +13 1007.2 998.5
11 14.06 ЮЗ 5 30 км 8/3 540 м
[Cu hum Ac trans Ci fib]
+14.1 +9.7 75 +13 +17 1007.3 998.7
12 14.06 Ю 3 30 км {дождь} 8/4 750 м
[Cu hum Ac As Ci fib]
+14.5 +8.9 69 +14 +20 1007.4 998.8 0.6
13 14.06 ЮЗ 3 30 км 9/4 900 м
[Cu hum Ac As]
+16.0 +8.0 59 +16 +19 1007.4 998.9
14 14.06 Ю 3 25 км 9/5 1050 м
[Cu med, cong As op]
+15.5 +8.6 63 +15 +18 1007.5 999.0
15 14.06 ЮЗ 2 30 км 8/4 1200 м
[Cu hum As op]
+16.8 +9.5 62 +17 +21 1007.4 998.9
16 14.06 Ю 3 30 км 9/4 1050 м
[Cu med, cong Ac trans]
+16.5 +8.9 61 +16 +19 1007.2 998.7
17 14.06 Ю 6 9000 м ливневой дождь н/о +13.2 +11.5 89 +11 +11 1008.1 999.4
18 14.06 ЮВ 4 21 км в посл. час дождь н/о +13.6 +12.2 91 +12 +12 1008.1 999.5 +17.0 2
19 14.06 Ю 5 28 км н/о +14.3 +11.7 84 +13 +13 1008.4 999.8
20 14.06 Ю 4 24 км н/о +13.7 +11.4 86 +12 +12 1008.7 1000.1
21 14.06 Ю 4 26 км н/о +13.1 +11.1 88 +11 +11 1009.3 1000.6
22 14.06 ЮЗ 1 23 км н/о +11.8 +9.5 86 +12 +12 1009.4 1000.7
23 14.06 ЮВ 3 20 км н/о +10.6 +8.8 89 +9 +9 1009.5 1000.8
00 15.06 Ю 1 21 км н/о +10.4 +8.5 88 +10 +10 1009.7 1001.0
01 15.06 ЮВ 3 21 км н/о +10.3 +8.9 91 +8 +8 1009.5 1000.8
02 15.06 ЮВ 3 18 км н/о +10.7 +9.6 93 +9 +9 1009.2 1000.5
03 15.06 ЮВ 4 17 км н/о +10.8 +9.7 93 +8 +8 1009.1 1000.4
04 15.06 ЮВ 5 14 км н/о +10.4 +9.1 92 +7 +7 1008.9 1000.2
05 15.06 ЮВ 3 10 км слаб. ливневой дождь н/о +10.7 +9.4 92 +9 +9 1008.9 1000.2
06 15.06 ЮВ 4 17 км в посл. час дождь н/о +11.2 +9.7 90 +9 +9 1008.5 999.8 +9.5 0.0
07 15.06 ЮВ 4 19 км н/о +11.6 +9.7 88 +9 +9 1008.8 1000.1
08 15.06 Ю 5 22 км н/о +12.7 +9.8 83 +11 +11 1008.7 1000.1
09 15.06 Ю 9 22 км н/о +14.1 +10.4 78 +12 +12 1008.7 1000.2
10 15.06 Ю 8 21 км н/о +14.3 +10.8 79 +12 +12 1008.9 1000.3
11 15.06 Ю 7 4300 м слаб. ливневой дождь н/о +13.5 +11.2 86 +11 +11 1009.3 1000.7
12 15.06 Ю 4 23 км в посл. час дождь н/о +13.7 +12.6 93 +12 +12 1009.6 1001.0 1
13 15.06 Ю 4 25 км в посл. час дождь н/о +15.4 +12.3 82 +15 +15 1009.4 1000.8
14 15.06 ЮЗ 4 28 км н/о +17.0 +10.2 64 +17 +17 1009.4 1000.9
15 15.06 ЮЗ 7 30 км н/о +16.7 +9.4 62 +15 +15 1009.6 1001.1
16 15.06 ЮЗ 5 23 км н/о +15.9 +7.7 58 +15 +15 1010.0 1001.5
17 15.06 З 4 22 км в посл. час дождь н/о +14.8 +8.7 67 +14 +14 1010.2 1001.6
18 15.06 З 4 23 км н/о +15.2 +7.8 61 +14 +14 1010.4 1001.8 +17.8 2
19 15.06 З 4 21 км н/о +15.1 +8.3 64 +14 +14 1010.6 1002.0
20 15.06 З 5 24 км н/о +12.2 +7.8 74 +10 +10 1011.2 1002.5
21 15.06 З 2 22 км н/о +9.9 +7.0 82 +8 +8 1011.8 1003.1
22 15.06 ЮЗ 3 21 км н/о +9.5 +7.4 87 +7 +7 1012.2 1003.4
23 15.06 Ю 1 26 км н/о +9.9 +7.0 82 +10 +10 1012.4 1003.6
00 16.06 Ю 3 30 км н/о +10.6 +6.9 78 +9 +9 1012.6 1003.8
01 16.06 ЮВ 1 28 км н/о +9.6 +6.9 83 +9 +9 1012.7 1003.9
02 16.06 ЮВ 1 24 км н/о +9.0 +7.0 87 +9 +9 1012.5 1003.7
03 16.06 В 1 25 км н/о +6.5 +5.7 95 +5 +5 1012.6 1003.8
04 16.06 В 1 17 км н/о +6.8 +6.1 95 +6 +6 1012.7 1003.9
05 16.06 В 2 13 км н/о +8.7 +7.8 94 +7 +7 1012.5 1003.7
06 16.06 Ю 4 12 км в посл. час дождь н/о +10.5 +9.3 92 +8 +8 1012.2 1003.5 +5.4 0.0
07 16.06 Ю 5 15 км н/о +11.5 +9.3 86 +9 +9 1012.6 1003.9
08 16.06 Ю 5 14 км н/о +12.4 +9.9 85 +10 +10 1012.8 1004.1
09 16.06 Ю 4 7000 м слаб. морось с дождем н/о +12.4 +9.9 85 +10 +10 1013.0 1004.3
10 16.06 Ю 5 3500 м ливневой дождь н/о +12.9 +11.1 89 +11 +11 1012.9 1004.2
11 16.06 Ю 6 19 км в посл. час дождь н/о +16.0 +12.3 79 +15 +15 1012.3 1003.7
12 16.06 Ю 9
{13}
24 км н/о +16.2 +11.3 73 +14 +14 1012.1 1003.5 0.6
13 16.06 ЮЗ 9
{13}
20 км слаб. ливневой дождь н/о +15.3 +11.5 78 +13 +13 1012.6 1004.0
14 16.06 ЮЗ 9
{13}
22 км в посл. час дождь н/о +18.6 +11.6 64 +18 +18 1012.6 1004.1
15 16.06 ЮЗ 9
{14}
22 км н/о +17.8 +9.7 59 +17 +17 1012.9 1004.4
16 16.06 Ю 8
{13}
22 км слаб. морось с дождем н/о +17.1 +9.8 62 +16 +16 1013.0 1004.5
17 16.06 ЮЗ 10
{14}
22 км в посл. час дождь н/о +16.4 +10.9 70 +15 +15 1013.1 1004.5
18 16.06 Ю 9 23 км н/о +16.3 +11.3 72 +15 +15 1012.9 1004.4 +19.1 0.6
19 16.06 Ю 6 23 км в посл. час дождь н/о +15.8 +11.8 77 +14 +14 1013.0 1004.5
20 16.06 Ю 8 25 км н/о +15.5 +11.1 75 +14 +14 1013.0 1004.4
21 16.06 Ю 8
{13}
27 км н/о +14.8 +11.2 79 +13 +13 1013.5 1004.8
22 16.06 Ю 7 27 км н/о +14.4 +10.2 76 +12 +12 1013.5 1004.9
23 16.06 Ю 5 22 км н/о +13.7 +10.8 83 +12 +12 1013.6 1004.9
00 17.06 ЮВ 4 25 км н/о +13.6 +11.2 85 +12 +12 1013.4 1004.8 0.0
01 17.06 Ю 5 23 км н/о +13.9 +10.9 82 +12 +12 1013.1 1004.5
02 17.06 Ю 5 23 км н/о +13.8 +10.6 81 +12 +12 1013.1 1004.5
03 17.06 Ю 9 22 км н/о +14.1 +10.3 78 +11 +11 1012.9 1004.3
04 17.06 Ю 6 6000 м слаб. ливневой дождь н/о +13.4 +10.5 83 +11 +11 1013.3 1004.7
05 17.06 СЗ 1 3500 м слаб. морось {дождь} 10/10 210 м
[Sc]
+11.7 +11.4 98 +12 +12 1013.8 1005.1
06 17.06 С 2 8000 м слаб. дождь {морось} 9/9 240 м
[Sc]
+11.6 +11.6 100 +10 +10 1013.9 1005.1 +11.5 1
07 17.06 Ю 3 6000 м дождь {морось} 10/10 240 м
[Sc]
+13.2 +13.2 100 +12 +12 1014.0 1005.3
08 17.06 Ю 6 3000 м дождь {морось} 10/10 150 м
[Sc]
+13.5 +13.4 99 +11 +11 1014.2 1005.5
09 17.06 ЮЗ 5 20 км в посл. час дождь {морось} 9/9 210 м
[Cu Sc]
+13.9 +12.4 91 +12 +13 1014.7 1006.1
10 17.06 ЮЗ 7 20 км 9/9 450 м
[Cu Sc]
+14.6 +10.4 76 +13 +13 1014.9 1006.3
11 17.06 ЮЗ 5 25 км 10/10 700 м
[Sc]
+14.8 +11.4 80 +13 +13 1015.0 1006.3
12 17.06 ЮВ 2 6000 м в посл. час морось 10/10 300 м
[Sc]
+14.7 +13.2 91 +14 +14 1014.7 1006.1 2
13 17.06 Ю 8 15 км осадки на расстоянии 9/9 270 м
[Cu Sc Ac trans]
+17.3 +13.7 79 +16 +16 1014.3 1005.8
14 17.06 Ю 10
{13}
30 км 8/5 540 м
[Cu Sc Ac trans Ci sp]
+17.8 +13.0 73 +17 +17 1014.2 1005.7
15 17.06 ЮЗ 9
{15}
25 км осадки на расстоянии 8/6 660 м
[Cu Sc Ac trans]
+18.6 +13.0 70 +18 +19 1014.0 1005.5
16 17.06 ЮЗ 8
{14}
40 км 9/9 960 м
[Cu Sc]
+18.2 +11.9 67 +18 +18 1013.8 1005.3
17 17.06 ЮЗ 8
{13}
19 км в посл. час дождь н/о +17.6 +11.4 67 +17 +17 1014.1 1005.6
18 17.06 З 3 19 км в посл. час дождь н/о +15.9 +13.3 85 +15 +15 1014.2 1005.6 +19.3 2
19 17.06 З 3 17 км в посл. час дождь н/о +13.9 +12.5 91 +13 +13 1014.7 1006.1
20 17.06 ЮЗ 4 27 км в посл. час дождь н/о +14.2 +12.3 88 +13 +13 1014.6 1006.0
21 17.06 ЮЗ 4 26 км н/о +14.0 +12.2 89 +13 +13 1014.9 1006.3
22 17.06 ЮЗ 3 26 км н/о +13.9 +12.0 88 +13 +13 1015.2 1006.6
23 17.06 Ю 4 27 км н/о +13.4 +10.5 83 +12 +12 1015.1 1006.4
00 18.06 Ю 4 25 км н/о +12.5 +10.2 86 +10 +10 1015.1 1006.4 0.2
01 18.06 ЮЗ 4 24 км н/о +12.5 +10.3 86 +11 +11 1014.8 1006.2
02 18.06 ЮЗ 3 24 км н/о +12.2 +10.1 87 +11 +11 1014.9 1006.2
03 18.06 ЮЗ 2 24 км н/о +11.4 +10.1 92 +11 +11 1014.7 1006.0
04 18.06 Ю 1 16 км н/о +10.9 +9.8 93 +11 +11 1014.3 1005.6
05 18.06 ЮЗ 1 30 км 9/1 1350 м
[Sc Ac trans Ci sp]
+10.3 +9.7 96 +11 +11 1014.5 1005.7
06 18.06 Ю 2 35 км 9/1 1350 м
[Sc Ac trans]
+12.7 +10.6 87 +12 +13 1014.4 1005.7 +10.1 0.2
07 18.06 ЮЗ 1 35 км 9/4 1200 м
[Sc As op]
+13.5 +10.6 83 +14 +16 1014.5 1005.8
08 18.06 ЮЗ 2 35 км 9/1 450 м
[Cu hum As op]
+14.4 +11.2 81 +14 +16 1014.3 1005.7
09 18.06 ЮЗ 2 40 км 9/4 570 м
[Cu hum Ac trans]
+15.1 +11.1 77 +15 +18 1014.2 1005.6
10 18.06 ЮЗ 3 40 км 9/5 660 м
[Cu Sc Ac trans Ci sp]
+16.3 +10.6 69 +16 +20 1014.0 1005.4
11 18.06 ЮВ 4 40 км 9/5 720 м
[Cu Sc Ci fib]
+16.4 +11.1 71 +16 +21 1013.8 1005.2
12 18.06 Ю 3 40 км 9/8 700 м
[Cu Sc Ac trans]
+17.2 +11.8 71 +17 +19 1013.6 1005.0
13 18.06 Ю 2 40 км 9/8 700 м
[Cu Sc Ac trans]
+17.3 +11.5 69 +18 +20 1013.2 1004.6
14 18.06 ЮЗ 2 40 км 10/5 800 м
[Cu Sc As op]
+18.0 +11.8 67 +19 +20 1012.7 1004.2
15 18.06 Ю 2 35 км 10/4 960 м
[Cu hum As trans]
+18.7 +11.5 63 +20 +23 1012.1 1003.6
16 18.06 ЮВ 2 40 км 10/3 870 м
[Cu hum As trans]
+18.3 +11.2 63 +19 +21 1011.6 1003.1
17 18.06 Ю 3 22 км в посл. час дождь н/о +18.2 +12.0 67 +19 +19 1011.3 1002.8
18 18.06 Ю 5 21 км слаб. ливневой дождь н/о +16.2 +12.6 79 +15 +15 1011.3 1002.7 +18.9 0.0
19 18.06 Ю 3 17 км слаб. дождь н/о +15.3 +13.4 88 +15 +15 1011.3 1002.8
20 18.06 Ю 3 21 км слаб. морось с дождем н/о +14.8 +12.5 86 +14 +14 1011.4 1002.8
21 18.06 Ю 2 20 км в посл. час дождь н/о +14.5 +12.5 88 +14 +14 1011.2 1002.6
22 18.06 Ю 2 18 км н/о +13.8 +11.9 88 +14 +14 1011.0 1002.4
23 18.06 З 1 12 км слаб. ливневой дождь н/о +13.4 +12.2 92 +13 +13 1010.7 1002.1
00 19.06 СЗ 3 7000 м слаб. морось с дождем н/о +12.7 +12.2 97 +11 +11 1010.0 1001.4 0.0
01 19.06 С 2 5000 м слаб. морось н/о +12.5 +12.4 99 +12 +12 1009.8 1001.2
02 19.06 СЗ 2 3600 м слаб. морось н/о +12.5 +12.5 100 +11 +11 1009.2 1000.6
03 19.06 СЗ 3 3200 м слаб. дождь н/о +12.5 +12.5 100 +11 +11 1009.0 1000.3
04 19.06 СЗ 2 4700 м в посл. час дождь н/о +12.5 +12.5 100 +11 +11 1008.8 1000.2
05 19.06 СЗ 3 3000 м дымка 10/10 120 м
[St]
+12.4 +12.4 100 +11 +11 1008.9 1000.2
06 19.06 С 3 3500 м дымка 10/10 120 м
[Sc]
+12.8 +12.4 97 +11 +11 1008.4 999.8 +12.3 0.2
07 19.06 С 4 15 км 10/9 240 м
[St Ac As]
+13.6 +11.4 87 +12 +12 1008.4 999.8
08 19.06 С 2 15 км 9/9 300 м
[Sc]
+13.7 +11.7 88 +13 +14 1008.6 1000.0

 

Местоположение метеостанции Шобери (Великобритания): широта 52.80 долгота -2.67 высота над уровнем моря 72 м.

В архиве по умолчанию представлена погода в Шобери за последнюю неделю. Архивные данные за месяц целиком и за предыдущие месяцы, начиная с января 2011 года, Вы можете получить, выбрав интересующий диапазон дат из раскрывающегося списка и нажав кнопку "Ввод!".


*Определитесь, кто Вы:
робот инопланетянин человек

Внимание! Время в таблицах - всемирное. Для получения местного времени необходимо прибавить поправку, которая равна 0 ч.

Смотрите также архив погоды в соседних городах и на ближайших метеорологических станциях:

Погода в Гавардене (Великобритания) (46 км)
Погода на Озере Вирнви (Великобритания) (54 км)
Погода в Лик-Торнклифф (Великобритания) (59 км)
Погода в Бала (Великобритания) (61 км)
Погода в Шобдоне (Великобритания) (63 км)
Погода на Ростерн Мир (Великобритания) (64 км)
Погода в Риле (Великобритания) (75 км)
Погода в Колсхилле (Великобритания) (76 км)
Погода в Хирфорде (Великобритания) (81 км)
Погода в Кросби (Великобритания) (82 км)

Пояснения к столбцам:

Ветер - указаны скорость ветра в м/с - средняя за 10 мин, порывы в срок и между сроками (в фигурных скобках) и направление, откуда дует ветер: С - северный, СВ - северо-восточный, В - восточный, ЮВ - юго-восточный, Ю - южный, ЮЗ - юго-западный, З - западный, СЗ - северо-западный.
Видимость - горизонтальная дальность видимости в метрах или километрах. При видимости от 1 до 10 км при отсутствии осадков обычно наблюдается дымка, при ухудшении видимости до 1 км и менее - туман. В сухую погоду видимость может ухудшаться дымом, пылью или мглою.
Явления - указаны атмосферные явления, наблюдавшиеся в срок или в последний час перед сроком; фигурными скобками обозначены явления, наблюдавшиеся между сроками (за 1-3 часа до срока); квадратными скобками обозначены град или гололедные отложения с указанием их диаметра в мм.
Облачность - указаны через наклонную черту общая и нижняя облачность в баллах и высота нижней границы облаков в метрах; квадратными скобками обозначены формы облаков: Ci - перистые, Cs - перисто-слоистые, Cc - перисто-кучевые, Ac - высококучевые, As - высокослоистые, Sc - слоисто-кучевые, Ns - слоисто-дождевые, Cu - кучевые, Cb - кучево-дождевые. Подробнее классификацию облаков см. в Атласе облаков (PDF).
T - Температура воздуха - температура, измеренная на высоте 2 м над землей.
Td - Температура точки росы - температура, при понижении до которой содержащийся в воздухе водяной пар достигнет насыщения.
f - Относительная влажность воздуха - влажноcть воздуха, измеренная на высоте 2 м над землей.
Te - Эффективная температура - температура, которую ощущает одетый по сезону человек в тени. Характеристика душности погоды. При расчете учитывается влияние влажности воздуха и скорости ветра на теплоощущения человека.
Tes - Эффективная температура на солнце - температура, которую ощущает человек, с поправкой на солнечный нагрев. Характеристика знойности погоды. Зависит от высоты солнца над горизонтом, облачности и скорости ветра. Ночью, в пасмурную погоду, а также при ветре 12 м/с и более поправка равна нулю.
P - Атмосферное давление - приведенное к уровню моря атмосферное давление.
Po - Атмосферное давление - измеренное на уровне метеостанции атмосферное давление.
Tmin - Минимальная температура - минимум температуры воздуха на высоте 2 м над землей.
Tmax - Максимальная температура - максимум температуры воздуха на высоте 2 м над землей.
R - Количество осадков - Количество выпавших осадков за период времени, мм. При наведении курсора мыши на число - период времени, за который выпало указанное количество осадков.
R24 - Количество осадков - Количество выпавших осадков за 24 часа, мм.
S - Снежный покров - Высота снежного покрова, см. При наведении курсора мыши на число - состояние снежного покрова и степень покрытия местности в баллах.